Flag for Germany Weather past 2 weeks in Meiningen, Thuringia, Germany

Now
63 °F

Passing clouds.


Feels Like: 63 °F
Forecast: 60 / 75 °F
Wind: 1 mph from South

Location: Meiningen

Current Time: Aug 2, 2014 at 2:54:54 AM

Latest Report: Aug 2, 2014 at 2:00 AM


Visibility: 17 mi

Pressure: 29.83 "Hg

Humidity: 68%

Dew point: 52 °F

Location of MeiningenLocation

Historic Weather in Meiningen — Graph

°F

Meiningen temperature yesterday

Maximum temperature yesterday: 76 °F (at 5:00 PM)
Minimum temperature yesterday: 55 °F (at 6:00 AM)
Average temperature yesterday: 67 °F

Past Weeks' High & Low Weather Summary

 TemperatureHumidityPressure
High87 °F (Jul 19, 5:00 PM)98% (Jul 28, 7:00 AM)30.15 "Hg (Jul 28, 7:00 AM)
Low55 °F (Aug 1, 6:00 AM)26% (Jul 19, 2:00 PM)29.71 "Hg (Jul 29, 3:00 PM)
Average68 °F70%29.90 "Hg
* Reported Jul 18 1:00 AM — Aug 2 1:00 AM, Meiningen, Weather by CustomWeather, © 2014

Note: Actual official high and low records may vary slightly from our data, if they occured in-between our weather recording intervals... More about our weather records

Advertising

Meiningen weather history for previous 24 hours

 ConditionsComfort  
Time TempWeatherWind HumidityBarometerVisibility
1:00 AM
Aug 2
64 °FOvercast.1 mph66%29.84 "Hg19 mi
12:00 AM66 °FOvercast.1 mph63%29.83 "Hg19 mi
10:00 PM
Aug 1
68 °FOvercast.1 mph61%29.84 "Hg19 mi
9:00 PM70 °FPartly sunny.1 mph58%29.83 "Hg22 mi
8:00 PM72 °FOvercast.1 mph47%29.82 "Hg22 mi
7:00 PM74 °FOvercast.2 mph43%29.81 "Hg22 mi
6:00 PM74 °FOvercast.2 mph40%29.82 "Hg22 mi
5:00 PM76 °FOvercast.3 mph42%29.82 "Hg22 mi
4:00 PM75 °FPartly sunny.3 mph38%29.83 "Hg22 mi
3:00 PM75 °FPartly sunny.2 mph38%29.84 "Hg22 mi
2:00 PM75 °FPartly sunny.2 mph44%29.86 "Hg22 mi
1:00 PM73 °FPartly sunny.3 mph48%29.88 "Hg22 mi
12:00 PM71 °FPartly sunny.2 mph55%29.89 "Hg22 mi
11:00 AM69 °FPartly sunny.3 mph63%29.91 "Hg22 mi
10:00 AM66 °FScattered clouds.2 mph67%29.93 "Hg19 mi
9:00 AM63 °FScattered clouds.2 mph73%29.94 "Hg19 mi
8:00 AM60 °FScattered clouds.2 mph79%29.94 "Hg22 mi
7:00 AM57 °FScattered clouds.1 mph84%29.95 "Hg25 mi
6:00 AM55 °FScattered clouds.1 mph89%29.96 "Hg25 mi
4:00 AM56 °FOvercast.1 mph87%29.97 "Hg14 mi
3:00 AM57 °FOvercast.1 mph86%29.97 "Hg15 mi
2:00 AM59 °FPassing clouds.1 mph81%29.97 "Hg17 mi
Weather by CustomWeather, © 2014

See weather overviewHow to use our weather pages